Flag for Canada Weather past 2 weeks in Edmonton, Alberta, Canada

Now
57 °F

Sunny.


Feels Like: 57 °F
Forecast: 43 / 58 °F
Wind: No wind

Location: Edmonton Municipal

Current Time: Oct 21, 2014 at 2:39:40 PM

Latest Report: Oct 21, 2014 at 2:00 PM


Visibility: 9 mi

Pressure: 29.65 "Hg

Humidity: 55%

Dew point: 41 °F

Location of EdmontonLocation

Historic Weather in Edmonton — Graph

°F

Edmonton temperature yesterday

Maximum temperature yesterday: 72 °F (at 3:00 PM)
Minimum temperature yesterday: 39 °F (at 6:00 AM)
Average temperature yesterday: 53 °F

Past Weeks' High & Low Weather Summary

 TemperatureHumidityPressure
High72 °F (Oct 10, 4:00 PM)100% (Oct 16, 6:00 AM)30.19 "Hg (Oct 16, 6:00 AM)
Low32 °F (Oct 13, 8:00 AM)27% (Oct 20, 3:00 PM)29.48 "Hg (Oct 14, 8:00 AM)
Average51 °F59%29.81 "Hg
* Reported Oct 6 1:00 PM — Oct 21 1:00 PM, Edmonton, Weather by CustomWeather, © 2014

Note: Actual official high and low records may vary slightly from our data, if they occured in-between our weather recording intervals... More about our weather records

Advertising

Edmonton weather history for previous 24 hours

 ConditionsComfort  
Time TempWeatherWind HumidityBarometerVisibility
1:00 PM
Oct 21
55 °FSunny.2 mph59%29.67 "Hg9 mi
12:00 PM54 °FSunny.8 mph67%29.68 "Hg9 mi
11:00 AM52 °FSunny.3 mph67%29.67 "Hg9 mi
10:00 AM48 °FSunny.3 mph76%29.66 "Hg9 mi
9:00 AM45 °FClear.5 mph81%29.66 "Hg9 mi
8:00 AM45 °FClear.5 mph81%29.64 "Hg9 mi
7:00 AM45 °FPassing clouds.3 mph81%29.60 "Hg9 mi
6:00 AM46 °FClear.5 mph76%29.61 "Hg9 mi
5:00 AM45 °FClear.7 mph76%29.59 "Hg9 mi
4:00 AM45 °FClear.5 mph76%29.57 "Hg9 mi
3:00 AM46 °FClear.8 mph71%29.57 "Hg9 mi
2:00 AM48 °FClear.8 mph66%29.55 "Hg9 mi
1:00 AM52 °FClear.14 mph58%29.51 "Hg9 mi
12:00 AM48 °FClear.2 mph66%29.51 "Hg9 mi
11:00 PM
Oct 20
52 °FClear.2 mph58%29.50 "Hg9 mi
10:00 PM52 °FClear.No wind58%29.49 "Hg9 mi
9:00 PM54 °FClear.No wind51%29.52 "Hg9 mi
8:00 PM55 °FClear.2 mph47%29.52 "Hg9 mi
7:00 PM57 °FSunny.2 mph44%29.53 "Hg9 mi
6:00 PM66 °FSunny.2 mph32%29.54 "Hg9 mi
5:00 PM70 °FSunny.2 mph29%29.53 "Hg9 mi
4:00 PM70 °FSunny.6 mph29%29.54 "Hg9 mi
3:00 PM72 °FSunny.8 mph27%29.53 "Hg9 mi
2:00 PM70 °FSunny.8 mph31%29.53 "Hg9 mi
Weather by CustomWeather, © 2014

See weather overviewHow to use our weather pages